Regional Weather Roundup
Issued by NWS

Home | Current Version | Previous Version | Graphics & Text | Print | Product List | Glossary On
Versions: 1 2 3 4 5 6 7 8 9 10 11 12 13 14 15 16 17 18 19 20 21 22 23 24 25 26 27 28 29 30 31 32 33 34 35 36 37 38 39 40 41 42 43 44 45 46 47 48 49 50
000
ASUS43 KTOP 240459
RWRKS

WEATHER ROUNDUP FOR KANSAS
NATIONAL WEATHER SERVICE GOODLAND KS
1200 AM CDT SUN MAY 24 2015

NOTE:  "FAIR" INDICATES FEW OR NO CLOUDS BELOW 12,000 FEET WITH NO
SIGNIFICANT WEATHER AND/OR OBSTRUCTIONS TO VISIBILITY.

KSZ001>006-013>018-027>032-041>047-240600-
NORTHWEST KANSAS

CITY           SKY/WX    TMP DP  RH WIND       PRES   REMARKS
GOODLAND       CLOUDY    53  51  93 S6        29.92R
HAYS           CLOUDY    57  52  82 E8        29.95S
HILL CITY      CLOUDY    58  57  97 E8        29.96R FOG
RUSSELL        CLOUDY    58  57  97 E7        29.94R
$$

KSZ061>065-074>080-084>089-240600-
SOUTHWEST KANSAS

CITY           SKY/WX    TMP DP  RH WIND       PRES   REMARKS
DODGE CITY     CLOUDY    57  55  93 SE9       29.94R
ELKHART          N/A     57  52  84 SE16        N/A
GARDEN CITY    CLOUDY    55  55 100 E10       29.91F
GREAT BEND     CLOUDY    57  54  88 NE6       29.94F
LIBERAL        CLOUDY    59  54  82 S14G21    29.91R
PRATT          CLOUDY    55  55 100 CALM      29.97R
$$

KSZ066>073-081>083-090>101-240600-
SOUTHEAST KANSAS

CITY           SKY/WX    TMP DP  RH WIND       PRES   REMARKS
CHANUTE        HVY RAIN  66  65  96 SE10G20   29.92F FOG
COFFEYVILLE    RAIN      65  64  97 S7        29.94R FOG
HUTCHINSON     CLOUDY    58  56  93 CALM      29.93F
NEWTON         CLOUDY    57  54  88 N3        29.94F
PARSONS        HVY RAIN  66  65  96 S5        29.94R
WICHITA INTL   LGT RAIN  59  58  96 S7        29.94R
WICHITA JABRA  LGT RAIN  60  59  96 CALM      29.93R
WINFIELD       LGT RAIN  61  60  97 SE7       29.96R
$$

KSZ007>012-019>026-033>040-048>060-102>105-240600-
NORTHEAST KANSAS

CITY           SKY/WX    TMP DP  RH WIND       PRES   REMARKS
CONCORDIA      CLOUDY    61  58  90 E8        29.96R
EMPORIA        LGT RAIN  63  62  97 E16G24    29.87R
LAWRENCE       RAIN      62  60  93 E16       29.98F FOG
MANHATTAN      CLOUDY    64  61  90 NW5       29.93R
OLATHE IND     RAIN      62  61  96 E16G23    29.99F FOG
OLATHE EXE     HVY RAIN  62  61  96 E10       30.00F FOG
SALINA         CLOUDY    60  58  92 NW5       29.94R
TOPEKA BILLARD HVY RAIN  62  61  96 E13G22    29.95F FOG
TOPEKA FORBES  HVY RAIN  63  61  93 E18G24    29.92F FOG
$$


USA.gov is the U.S. government's official web portal to all federal, state and local government web resources and services.